Regional Weather Roundup
Issued by NWS

Home | Current Version | Previous Version | Graphics & Text | Print | Product List | Glossary Off
Versions: 1 2 3 4 5 6 7 8 9 10 11 12 13 14 15 16 17 18 19 20 21 22 23 24 25 26 27 28 29 30 31 32 33 34 35 36 37 38 39 40 41 42 43 44 45 46 47 48 49 50

000
ASUS43 KDMX 211201
RWRIA

WEATHER ROUNDUP FOR IOWA
NATIONAL WEATHER SERVICE DES MOINES IA
600 AM CST SAT JAN 21 2017

NOTE: "FAIR" INDICATES FEW OR NO CLOUDS BELOW 12,000 FEET WITH NO
SIGNIFICANT WEATHER AND/OR OBSTRUCTIONS TO VISIBILITY.

* - THESE STATIONS ARE NOT NWS STATIONS...THUS NOT UNDER NWS
QUALITY CONTROL.  THEY ALSO DO NOT REPORT WEATHER SUCH
AS PRECIPITATION OR FOG.

IAZ001>003-012>014-020>022-031>034-043>046-211300-
   NORTHWEST IOWA

CITY           SKY/WX    TMP DP  RH WIND       PRES   REMARKS
CARROLL *      FOG       36  36 100 CALM      29.36R VSB 1/2
CHEROKEE *     FOG       35  35 100 CALM      29.36S VSB 1/2
DENISON *      FOG       37  37 100 CALM      29.34S VSB 1/4
LE MARS *      FOG       36  36 100 SW5       29.36S VSB 1/2 WCI  32
ORANGE CITY *  FOG       36  36 100 CALM      29.35S VSB 1/2
SHELDON *      FOG       34  34 100 E5        29.34S VSB 1/4 WCI  30
SIOUX CITY     FOG       38  36  92 CALM      29.36S VSB 1/2
6HR MIN TEMP:  37; 6HR MAX TEMP:  39; 6HR PCP: TRACE;

SPENCER        FOG       35  35 100 E3        29.36S VSB 1/4
6HR MIN TEMP:  34; 6HR MAX TEMP:  35; 6HR PCP: TRACE;

STORM LAKE *   FOG       36  34  93 S3        29.35S VSB<1/4
$$

IAZ055>058-069>071-079>083-090>094-211300-
   SOUTHWEST IOWA

CITY           SKY/WX    TMP DP  RH WIND       PRES   REMARKS
ATLANTIC *     FOG       39  39 100 SW6       29.38R VSB 1/4 WCI  35
AUDUBON *      FOG       39  37  93 SW5       29.38R VSB 1/2
CLARINDA *     FOG       41  41 100 SW6       29.42R VSB 1/4
COUNCIL BLFS * FOG       39  39 100 SW5       29.38R VSB<1/4
CRESTON *      FOG       43  43 100 SW7       29.40S VSB 1/4
HARLAN  *      FOG       39  39 100 SW6       29.40S VSB 1/4 WCI  35
LAMONI         FOG       42  42 100 SW5       29.39F VSB 1/4
6HR MIN TEMP:  42; 6HR MAX TEMP:  46;

RED OAK *      FOG       41  41 100 SW5       29.39S VSB 1/4
SHENANDOAH *   FOG       41  39  93 S5        29.40S VSB 1/2
$$

IAZ047>049-059>061-072>074-084-211300-
   CENTRAL IOWA

CITY           SKY/WX    TMP DP  RH WIND       PRES   REMARKS
AMES           FOG       37  37 100 SE3       29.39R VSB 1/4
6HR MIN TEMP:  37; 6HR MAX TEMP:  39; 6HR PCP:  0.23;

ANKENY *       FOG       43  43 100 CALM      29.40S VSB<1/4
BOONE *        FOG       37  37 100 S5        29.37R VSB<1/4 WCI  34
CHARITON *     FOG       43  43 100 S6        29.40S VSB<1/4
DES MOINES     DRZL/FOG  44  43  96 S7        29.39S VSB 1/4
6HR MIN TEMP:  41; 6HR MAX TEMP:  44; 6HR PCP:  0.16;

GRINNELL*      FOG       42  42  99 S8        29.39F VSB 1/4
KNOXVILLE *    FOG       43  43 100 S7        29.39S VSB 1/4
MARSHALLTOWN   CLOUDY    41  41 100 S8        29.38S FOG
6HR MIN TEMP:  37; 6HR MAX TEMP:  42; 6HR PCP:  0.10;

NEWTON *       FOG       43  43 100 S5        29.39S VSB 1/4
PELLA *        FOG       44  43  98 S6        29.41F VSB 1/2
PERRY *        FOG       37  37  98 S6        29.38S VSB 1/2 WCI  32
$$

IAZ004>006-015-016-023>025-035-036-211300-
   NORTH CENTRAL IOWA

CITY           SKY/WX    TMP DP  RH WIND       PRES   REMARKS
ALGONA *       CLOUDY    36  36 100 CALM      29.37S FOG
CLARION *      CLOUDY    36  36 100 SE6       29.37S FOG     WCI  31
ESTHERVILLE    FOG       32  32 100 CALM      29.36F VSB 1/4
6HR MIN TEMP:  32; 6HR MAX TEMP:  33; 6HR PCP:  0.02;

FORT DODGE *   CLOUDY    36  34  93 CALM      29.37F
MASON CITY     MIX PCPN  35  34  96 SE6       29.39R VSB 1   WCI  30
6HR MIN TEMP:  34; 6HR MAX TEMP:  35; 6HR PCP:  0.18;

FOREST CITY *  RAIN      34  34 100 SE5       29.37S WCI  30
WEBSTER CITY * FOG       36 N/A N/A SE3       29.35F VSB 1/4
IOWA FALLS *   SNOW      37  37  97 S6        29.39R VSB 1/4 WCI  33
$$

IAZ007>011-017>019-026>030-037>042-050>054-066-211300-
   NORTHEAST IOWA

CITY           SKY/WX    TMP DP  RH WIND       PRES   REMARKS
CEDAR RAPIDS   FOG       41  41 100 SW8       29.40S VSB 1/4
6HR MIN TEMP:  38; 6HR MAX TEMP:  43; 6HR PCP:  0.01;

CHARLES CITY * FOG       36  36 100 SE9       29.39S VSB 3/4 WCI  29
CLINTON *      FOG       45  44  97 S8        29.44F VSB 1/4
DECORAH *      CLOUDY    36  36 100 SE9       29.40S FOG     WCI  29
DUBUQUE        FOG       41  41 100 S7        29.43R VSB 1/4
6HR MIN TEMP:  37; 6HR MAX TEMP:  41;

MONTICELLO *   FOG       43  43 100 SE8       29.42S VSB 1/4
OELWEIN *      FOG       37  37 100 SE10      29.41S VSB 1/4 WCI  30
WATERLOO       CLOUDY    41  40  96 S7        29.39S FOG
6HR MIN TEMP:  36; 6HR MAX TEMP:  41; 6HR PCP:  0.08;

$$

IAZ064-065-067-068-078-211300-
   EAST CENTRAL IOWA

CITY           SKY/WX    TMP DP  RH WIND       PRES   REMARKS
DAVENPORT      CLEAR     43  42  97 S9        29.43F FOG
6HR MIN TEMP:  41; 6HR MAX TEMP:  46; 6HR PCP:  0.01;

IOWA CITY      CLOUDY    45  44  97 SW8       29.43S FOG
6HR MIN TEMP:  42; 6HR MAX TEMP:  45;

MUSCATINE *    FOG       39  39 100 CALM      29.42F VSB<1/4
QUAD CITIES    CLEAR     47  44  90 S8        29.42F
6HR MIN TEMP:  41; 6HR MAX TEMP:  48; 6HR PCP:  0.05;

$$

IAZ062-063-075>077-085>089-095>099-211300-
   SOUTHEAST IOWA

CITY           SKY/WX    TMP DP  RH WIND       PRES   REMARKS
BURLINGTON     CLEAR     45  43  93 S8        29.42F
6HR MIN TEMP:  45; 6HR MAX TEMP:  48;

FAIRFIELD *    FOG       43  43 100 S6        29.41R VSB<1/4
FORT MADISON * CLEAR     45  45 100 S9        29.43S
KEOKUK *       CLEAR     48 N/A N/A S8        29.42R
OSKALOOSA *    FOG       41  41  99 SW6       29.41S VSB 1/4
OTTUMWA        FOG       44  43  96 SW6       29.40R VSB 3/4
6HR MIN TEMP:  44; 6HR MAX TEMP:  46;

WASHINGTON *   FOG       43  43 100 SW7       29.42S VSB 1/4
$$

ABBREVIATIONS USED IN REMARKS
   TC - TEMPERATURES IN CELSIUS
  WCI - WIND CHILL INDEX
   HX - HEAT INDEX
  VSB - VISIBILITY
$$




USA.gov is the U.S. government's official web portal to all federal, state and local government web resources and services.